Regional Weather Roundup
Issued by NWS

Home | Current Version | Previous Version | Graphics & Text | Print | Product List | Glossary On
Versions: 1 2 3 4 5 6 7 8 9 10 11 12 13 14 15 16 17 18 19 20 21 22 23 24 25 26 27 28 29 30 31 32 33 34 35 36 37 38 39 40 41 42 43 44 45 46 47 48 49 50
000
ASUS43 KMPX 281910
RWRMN
WEATHER ROUNDUP FOR MINNESOTA
NATIONAL WEATHER SERVICE TWIN CITIES/CHANHASSEN MN
100 PM CST WED JAN 28 2015


NOTE: "FAIR" INDICATES FEW OR NO CLOUDS BELOW 12,000 FEET WITH NO
SIGNIFICANT WEATHER AND/OR OBSTRUCTIONS TO VISIBILITY. N/A MEANS
CURRENT SKY AND/OR WEATHER CONDITIONS ARE NOT AVAILABLE.

MNZ060>063-068>070-282000-
   Twin Cities Metro

CITY           SKY/WX    TMP DP  RH WIND       PRES   REMARKS
TWIN CITIES    CLOUDY    29  24  82 SE15      29.87F HAZE    WCI  18
ST PAUL        CLOUDY    29  25  85 SE13G23   29.90F FOG     WCI  19
CRYSTAL        CLOUDY    30  25  81 SE12      29.86F HAZE    WCI  20
BLAINE         CLOUDY   N/A N/A N/A SE10G18   29.88F FOG
LAKEVILLE      CLOUDY    28  27  93 SE13      29.86F FOG     WCI  18
EDEN PRAIRIE   CLOUDY    30  26  85 SE13      29.85F FOG     WCI  20
SOUTH ST PAUL  CLOUDY    30  26  84 SE9G18    29.89F FOG     WCI  21
LAKE ELMO      CLOUDY    30  27  86 SE10      29.90F FOG     WCI  21
$$
MNZ001>005-007-008-013>017-022>024-027-028-282000-
   Northwest Minnesota

CITY           SKY/WX    TMP DP  RH WIND       PRES   REMARKS
BEMIDJI        CLOUDY    31  30  95 S13G20    29.76F FOG     WCI  21
HALLOCK        FOG       34  32  93 CALM      29.78F VSB 1/4
ROSEAU         FOG       34  28  80 CALM      29.79F VSB 1
WARROAD        FOG       32  28  86 CALM      29.80F VSB 3/4
THIEF RVR FALL CLOUDY    34  30  86 S3        29.77F
CROOKSTON      CLOUDY    34  32  93 SW8       29.78F FOG     WCI  27
FOSSTON        CLOUDY    34  28  80 S12       29.76S FOG     WCI  25
DETROIT LAKES  CLOUDY    34  32  93 S10       29.77F FOG     WCI  26
MOORHEAD       CLOUDY    36  36 100 S17       29.77F FOG
PARK RAPIDS    CLOUDY    32  29  88 S12       29.77F FOG     WCI  23
MAHNOMEN       CLOUDY    33  31  93 S13       29.75F FOG     WCI  24
$$
MNZ006-009>011-018-025>026-282000-
   North Central Minnesota

CITY           SKY/WX    TMP DP  RH WIND       PRES   REMARKS
BAUDETTE       FOG       31  30  96 S5        29.79F VSB 1   WCI  26
FLAG ISLAND    FOG       28  28 100 SE3       29.80F VSB 1
INTL FALLS     CLOUDY    28  24  85 S8        29.82F WCI  20
WASKISH        CLOUDY    30  28  93 SE5       29.79F FOG     WCI  25
BIG FORK       CLOUDY    28  27  93 S12       29.81F FOG     WCI  18
LONGVILLE      CLOUDY    28  28 100 S7        29.81S FOG     WCI  21
GRAND RAPIDS   CLOUDY    27  23  86 S10       29.81F WCI  17
CRANE LAKE     CLOUDY    25  21  86 S6        29.86F WCI  18
ORR            CLOUDY    25  19  80 SE8       29.81F WCI  16
COOK           CLOUDY    25  21  86 S8        29.84F FOG     WCI  16
WALKER         CLOUDY    30  28  95 S8        29.77F FOG     WCI  22
$$
MNZ012-019>021-037-282000-
   Northeast Minnesota

CITY           SKY/WX    TMP DP  RH WIND       PRES   REMARKS
DULUTH         CLOUDY    26  22  84 SE9       29.85F FOG     WCI  17
ELY            CLOUDY    28  25  86 S10       29.83F WCI  19
HIBBING        CLOUDY    26  21  81 S7        29.83F WCI  18
EVELETH        CLOUDY    27  23  86 S10       29.86F FOG     WCI  17
DULUTH HARBOR  CLOUDY    30  25  80 CALM      29.92F
TWO HARBORS    CLOUDY    28  25  86 SE9       29.88F WCI  20
SILVER BAY     CLOUDY    28  25  86 SE5       29.89F WCI  23
GRAND MARAIS     N/A     31  26  82 E8        29.94F WCI  23
G MARAIS ARPRT   N/A     25  21  86 E9        29.88F FOG     WCI  15
$$
MNZ029>031-032-039>041-046>048-054>057-064-282000-
   West Central Minnesota

CITY           SKY/WX    TMP DP  RH WIND       PRES   REMARKS
FERGUS FALLS   CLOUDY    34  30  86 S18       29.79F FOG     WCI  23
WHEATON        CLOUDY    32  30  93 SE12      29.78F FOG     WCI  23
MORRIS         CLOUDY    34  30  86 SE14      29.77S FOG     WCI  24
ALEXANDRIA     CLOUDY    31  30  96 S14       29.78F FOG     WCI  21
ELBOW LAKE     CLOUDY    32  31  96 SE13      29.77F FOG     WCI  22
WADENA         CLOUDY    30  28  93 S14G20    29.78  FOG     WCI  20
GLENWOOD       CLOUDY    30  30 100 SE12      29.79S FOG     WCI  21
APPLETON       CLOUDY    36  30  80 SE10G16   29.76F FOG
BENSON         CLOUDY    34  30  86 S12G18    29.77F FOG     WCI  25
ORTONVILLE     CLOUDY    34  30  86 SE13      29.75F FOG     WCI  25
MADISON        CLOUDY    37  36  93 SE13      29.75S FOG
WILLMAR        CLOUDY    34  30  86 SE17G24   29.79F FOG     WCI  23
$$
MNZ033>034-036-042>043-049>051-058-059-282000-
   Central Minnesota

CITY           SKY/WX    TMP DP  RH WIND       PRES   REMARKS
ST CLOUD       CLOUDY    29  26  89 SE15      29.82F FOG     WCI  18
SAUK CENTRE    CLOUDY    30  29  96 SE13      29.80F FOG     WCI  20
PAYNESVILLE    CLOUDY    28  28  98 E12G18    29.80S FOG     WCI  18
AITKIN         CLOUDY    30  25  80 S10       29.82F HAZE    WCI  21
PINE RIVER     CLOUDY    28  28 100 SE13      29.84F FOG     WCI  18
BRAINERD       CLOUDY    29  27  92 S10       29.82F FOG     WCI  20
STAPLES        CLOUDY    28  28 100 S8        29.79F FOG     WCI  20
LONG PRAIRIE   CLOUDY    30  30 100 SE13      29.80F FOG     WCI  20
LITTLE FALLS   CLOUDY    30  28  93 SE10      29.82F FOG     WCI  21
LITCHFIELD     CLOUDY    32  30  93 SE9G20    29.81F FOG     WCI  24
BUFFALO        CLOUDY    29  26  88 SE7       29.85F FOG     WCI  22
MAPLE LAKE     CLOUDY    31  29  92 SE13      29.84F FOG     WCI  21
$$
MNZ037-044-045-052-053-282000-
   East Central Minnesota

CITY           SKY/WX    TMP DP  RH WIND       PRES   REMARKS
PRINCETON      CLOUDY    30  27  86 SE14      29.85F HAZE    WCI  20
MORA           CLOUDY    27  23  86 SE9       29.89F WCI  17
CAMBRIDGE      CLOUDY    30  21  69 SE8       29.85F HAZE    WCI  23
RUSH CITY      CLOUDY    28  24  84 S14G21    29.88F WCI  17
MOOSE LAKE     CLOUDY    30  23  74 S6        29.85F HAZE    WCI  24
HINCKLEY       CLOUDY    30  27  86 S10G18    29.88F FOG     WCI  21
CLOQUET        CLOUDY    27  21  80 SE5       29.85F WCI  21
MCGREGOR       CLOUDY    28  27  93 SE9       29.84F WCI  20
$$
MNZ071>073-080-081-089-090-097-098-282000-
   Southwest Minnesota

CITY           SKY/WX    TMP DP  RH WIND       PRES   REMARKS
MONTEVIDEO     CLOUDY    34  34 100 S16       29.75F FOG     WCI  23
GRANITE FALLS  CLOUDY    33  31  93 SE14      29.78F FOG     WCI  23
CANBY          CLOUDY    37  34  89 SE7       29.74S FOG
MARSHALL       CLOUDY    34  28  80 S13       29.75F WCI  25
REDWOOD FALLS  CLOUDY    33  30  88 SE16      29.77F FOG     WCI  23
OLIVIA         CLOUDY    32  32 100 SE15G22   29.77F FOG     WCI  22
PIPESTONE      CLOUDY    34  34 100 S15       29.68F FOG     WCI  24
WINDOM         CLOUDY    34  30  86 SE16      29.75F FOG     WCI  23
WORTHINGTON    CLOUDY    30  28  93 S12       29.73F WCI  21
JACKSON        CLOUDY    32  32 100 S10       29.76F FOG     WCI  24
TRACY          CLOUDY    34  32  93 S12G23    29.73F FOG     WCI  25
SLAYTON        CLOUDY    32  31  96 SE20G25   29.70F FOG     WCI  20
$$
MNZ065>067-074>077-082>085-091>093-282000-
   South Central Minnesota

CITY           SKY/WX    TMP DP  RH WIND       PRES   REMARKS
MANKATO        CLOUDY    32  28  86 SE18      29.82F WCI  20
NEW ULM        CLOUDY    32  30  93 SE13      29.79F FOG     WCI  22
ST JAMES       CLOUDY    34  30  86 SE16      29.80F FOG     WCI  23
FAIRMONT       CLOUDY    34  27  75 S20       29.79F WCI  22
GLENCOE        CLOUDY    32  31  94 SE14      29.82F FOG     WCI  22
FARIBAULT      CLOUDY    32  28  86 SE16      29.86F FOG     WCI  21
OWATONNA       CLOUDY    32  28  86 SE14G23   29.85F FOG     WCI  22
WASECA         CLOUDY    32  30  93 SE15G21   29.85F FOG     WCI  22
ALBERT LEA     CLOUDY    30  30 100 SE18G24   29.83F FOG     WCI  18
$$
MNZ078>079-086>088-094>096-282000-
   Southeast Minnesota

CITY           SKY/WX    TMP DP  RH WIND       PRES   REMARKS
ROCHESTER      FOG       29  27  92 SE21      29.88F VSB 1/2 WCI  16
RED WING       CLOUDY    30  25  80 SE10      29.91F HAZE    WCI  21
STANTON        CLOUDY    32  27  80 SE9       29.88F WCI  24
DODGE CENTER   CLOUDY    30  30 100 SE15G21   29.86F FOG     WCI  19
WINONA         CLOUDY    32  28  86 SE10      29.96F FOG     WCI  24
AUSTIN         CLOUDY    30  28  93 SE10G20   29.86F FOG     WCI  21
PRESTON        CLOUDY    29  28  95 SE17G23   29.89F FOG     WCI  17
$$
ABBREVIATIONS USED IN REMARKS
   TC - TEMPERATURES IN CELSIUS
  WCI - WIND CHILL INDEX
   HX - HEAT INDEX
  VSB - VISIBILITY
$$



USA.gov is the U.S. government's official web portal to all federal, state and local government web resources and services.